TimeCST,TemperatureF,Dew PointF,Humidity,Sea Level PressureIn,VisibilityMPH,Wind Direction,Wind SpeedMPH,Gust SpeedMPH,PrecipitationIn,Events,Conditions,WindDirDegrees,DateUTC
12:14 AM,41.0,32.0,70,30.08,10.0,South,10.4,16.1,N/A,,Clear,170,2012-11-18 06:14:00
12:35 AM,41.0,32.0,70,30.08,10.0,South,11.5,-,N/A,,Clear,170,2012-11-18 06:35:00
12:54 AM,41.0,32.0,70,30.07,10.0,South,13.8,-,N/A,,Clear,180,2012-11-18 06:54:00
1:15 AM,41.0,32.0,70,30.07,10.0,South,11.5,-,N/A,,Clear,170,2012-11-18 07:15:00
1:35 AM,41.0,32.0,70,30.07,10.0,South,10.4,16.1,N/A,,Clear,170,2012-11-18 07:35:00
1:54 AM,41.0,32.0,70,30.07,10.0,South,10.4,-,N/A,,Clear,170,2012-11-18 07:54:00
2:15 AM,39.2,32.0,75,30.07,10.0,South,10.4,-,N/A,,Clear,170,2012-11-18 08:15:00
2:35 AM,39.2,32.0,75,30.08,10.0,South,9.2,-,N/A,,Clear,170,2012-11-18 08:35:00
2:54 AM,39.2,32.0,75,30.08,10.0,SSE,8.1,-,N/A,,Clear,160,2012-11-18 08:54:00
3:15 AM,41.0,32.0,70,30.07,10.0,South,8.1,-,N/A,,Clear,170,2012-11-18 09:15:00
3:35 AM,39.2,32.0,75,30.07,10.0,South,6.9,-,N/A,,Clear,180,2012-11-18 09:35:00
3:54 AM,39.2,32.0,75,30.07,10.0,South,5.8,-,N/A,,Clear,170,2012-11-18 09:54:00
4:15 AM,37.4,32.0,81,30.07,10.0,SSE,4.6,-,N/A,,Clear,150,2012-11-18 10:15:00
4:34 AM,37.4,32.0,81,30.06,10.0,SSE,6.9,-,N/A,,Clear,160,2012-11-18 10:34:00
4:55 AM,35.6,30.2,81,30.06,10.0,South,8.1,-,N/A,,Clear,180,2012-11-18 10:55:00
5:14 AM,35.6,30.2,81,30.06,10.0,South,9.2,-,N/A,,Clear,170,2012-11-18 11:14:00
5:34 AM,35.6,30.2,81,30.06,10.0,South,6.9,-,N/A,,Clear,180,2012-11-18 11:34:00
5:55 AM,33.8,30.2,87,30.06,10.0,South,4.6,-,N/A,,Clear,180,2012-11-18 11:55:00
6:14 AM,32.0,28.4,87,30.05,10.0,South,4.6,-,N/A,,Clear,170,2012-11-18 12:14:00
6:34 AM,33.8,28.4,81,30.06,10.0,Calm,Calm,-,N/A,,Clear,0,2012-11-18 12:34:00
6:55 AM,32.0,28.4,87,30.05,10.0,SSE,3.5,-,N/A,,Clear,160,2012-11-18 12:55:00
7:14 AM,32.0,28.4,87,30.05,10.0,South,4.6,-,N/A,,Clear,180,2012-11-18 13:14:00
7:34 AM,32.0,28.4,87,30.05,10.0,South,4.6,-,N/A,,Clear,180,2012-11-18 13:34:00
7:55 AM,32.0,28.4,87,30.06,10.0,South,8.1,-,N/A,,Clear,190,2012-11-18 13:55:00
8:14 AM,35.6,30.2,81,30.05,10.0,South,6.9,-,N/A,,Clear,180,2012-11-18 14:14:00
8:34 AM,37.4,30.2,75,30.05,10.0,South,8.1,-,N/A,,Clear,180,2012-11-18 14:34:00
8:55 AM,41.0,32.0,70,30.05,10.0,South,8.1,-,N/A,,Clear,180,2012-11-18 14:55:00
9:14 AM,42.8,32.0,66,30.05,10.0,South,10.4,-,N/A,,Clear,180,2012-11-18 15:14:00
9:35 AM,44.6,32.0,61,30.05,10.0,South,12.7,-,N/A,,Clear,190,2012-11-18 15:35:00
9:55 AM,46.4,32.0,57,30.05,10.0,SSW,15.0,-,N/A,,Clear,200,2012-11-18 15:55:00
10:14 AM,46.4,32.0,57,30.05,10.0,SSW,15.0,-,N/A,,Clear,200,2012-11-18 16:14:00
10:35 AM,48.2,32.0,54,30.05,10.0,South,13.8,-,N/A,,Clear,180,2012-11-18 16:35:00
10:55 AM,50.0,32.0,50,30.05,10.0,South,13.8,-,N/A,,Clear,180,2012-11-18 16:55:00
11:14 AM,51.8,32.0,47,30.05,10.0,SSW,17.3,-,N/A,,Clear,200,2012-11-18 17:14:00
11:35 AM,51.8,32.0,47,30.05,10.0,South,15.0,-,N/A,,Clear,190,2012-11-18 17:35:00
11:54 AM,53.6,32.0,44,30.03,10.0,South,13.8,-,N/A,,Clear,180,2012-11-18 17:54:00
12:15 PM,53.6,32.0,44,30.03,10.0,South,13.8,18.4,N/A,,Clear,180,2012-11-18 18:15:00
12:34 PM,53.6,32.0,44,30.02,10.0,South,15.0,18.4,N/A,,Clear,180,2012-11-18 18:34:00
12:54 PM,51.8,32.0,47,30.02,10.0,South,12.7,-,N/A,,Clear,180,2012-11-18 18:54:00
1:15 PM,53.6,32.0,44,30.01,10.0,SSE,9.2,-,N/A,,Clear,160,2012-11-18 19:15:00
1:34 PM,53.6,32.0,44,30.01,10.0,South,10.4,-,N/A,,Clear,170,2012-11-18 19:34:00
1:55 PM,55.4,32.0,41,30.01,10.0,South,11.5,-,N/A,,Clear,170,2012-11-18 19:55:00
2:15 PM,53.6,32.0,44,30.00,10.0,SSE,11.5,-,N/A,,Clear,160,2012-11-18 20:15:00
2:34 PM,53.6,33.8,47,29.99,10.0,SSE,8.1,-,N/A,,Clear,160,2012-11-18 20:34:00
2:55 PM,55.4,33.8,44,29.99,10.0,South,12.7,-,N/A,,Clear,170,2012-11-18 20:55:00
3:15 PM,55.4,33.8,44,29.99,10.0,South,13.8,20.7,N/A,,Clear,170,2012-11-18 21:15:00
3:34 PM,57.2,33.8,41,29.99,10.0,South,13.8,-,N/A,,Clear,170,2012-11-18 21:34:00
3:55 PM,57.2,33.8,41,29.99,10.0,South,12.7,-,N/A,,Clear,170,2012-11-18 21:55:00
4:14 PM,55.4,33.8,44,29.98,10.0,SSE,9.2,-,N/A,,Clear,160,2012-11-18 22:14:00
4:35 PM,55.4,33.8,44,29.99,10.0,South,11.5,-,N/A,,Clear,170,2012-11-18 22:35:00
4:55 PM,53.6,33.8,47,29.99,10.0,SSE,9.2,-,N/A,,Clear,160,2012-11-18 22:55:00
5:14 PM,51.8,33.8,50,30.00,10.0,SSE,9.2,-,N/A,,Clear,160,2012-11-18 23:14:00
5:35 PM,50.0,33.8,54,30.00,10.0,SSE,8.1,-,N/A,,Clear,160,2012-11-18 23:35:00
5:55 PM,50.0,33.8,54,30.00,10.0,SSE,11.5,-,N/A,,Clear,150,2012-11-18 23:55:00
6:14 PM,50.0,32.0,50,30.01,10.0,SSE,9.2,-,N/A,,Clear,150,2012-11-19 00:14:00
6:35 PM,50.0,32.0,50,30.01,10.0,SSE,11.5,-,N/A,,Clear,150,2012-11-19 00:35:00
6:55 PM,50.0,32.0,50,30.01,10.0,SSE,12.7,-,N/A,,Clear,160,2012-11-19 00:55:00
7:14 PM,48.2,32.0,54,30.02,10.0,South,11.5,-,N/A,,Clear,170,2012-11-19 01:14:00
7:35 PM,48.2,32.0,54,30.02,10.0,SSE,6.9,-,N/A,,Clear,160,2012-11-19 01:35:00
8:14 PM,46.4,32.0,57,30.02,10.0,SSE,8.1,-,N/A,,Clear,160,2012-11-19 02:14:00
8:35 PM,44.6,32.0,61,30.02,10.0,SSE,9.2,-,N/A,,Clear,160,2012-11-19 02:35:00
8:55 PM,44.6,33.8,66,30.02,10.0,SSE,12.7,-,N/A,,Clear,160,2012-11-19 02:55:00
9:14 PM,44.6,32.0,61,30.01,10.0,South,10.4,-,N/A,,Clear,170,2012-11-19 03:14:00
9:35 PM,42.8,32.0,66,30.02,10.0,SSE,9.2,-,N/A,,Clear,160,2012-11-19 03:35:00
9:55 PM,42.8,32.0,66,30.02,10.0,South,9.2,-,N/A,,Clear,170,2012-11-19 03:55:00
10:14 PM,42.8,32.0,66,30.01,10.0,SSE,9.2,-,N/A,,Clear,160,2012-11-19 04:14:00
10:35 PM,42.8,32.0,66,30.01,10.0,South,10.4,-,N/A,,Clear,170,2012-11-19 04:35:00
10:55 PM,42.8,33.8,70,30.00,10.0,SSE,9.2,-,N/A,,Clear,160,2012-11-19 04:55:00
11:14 PM,42.8,33.8,70,30.00,10.0,South,10.4,-,N/A,,Clear,170,2012-11-19 05:14:00
11:35 PM,42.8,33.8,70,30.00,10.0,South,10.4,-,N/A,,Clear,170,2012-11-19 05:35:00
11:55 PM,42.8,33.8,70,30.00,10.0,SSE,9.2,-,N/A,,Clear,160,2012-11-19 05:55:00